�N����,����,�~����,�C��,���x,�C��,����,���ϕ���,�ő�u�ԕ���,�ő厞����,���˗�,�I�_���x,�n�����x,�ő啗���N��,DTYPE
"23/12/08","00:10",0.0,4.4,90.1,1014.0,282.3,1.3,1.7,301.2,0.00,3.0,8.9,"00:00:58",1
"23/12/08","00:20",0.0,4.4,90.0,1014.2,305.2,1.7,2.2,320.6,0.00,2.9,8.9,"00:11:46",1
"23/12/08","00:30",0.0,4.3,89.9,1014.7,316.7,2.1,2.8,328.9,0.00,2.8,8.8,"00:21:58",1
"23/12/08","00:40",0.0,3.9,89.9,1014.5,269.4,0.8,1.2,311.7,0.00,2.4,8.7,"00:33:10",1
"23/12/08","00:50",0.0,3.7,89.9,1014.5,303.2,1.1,2.0,318.8,0.00,2.2,8.9,"00:44:52",1
"23/12/08","01:00",0.0,3.5,90.1,1014.5,224.7,0.3,0.6,272.9,0.00,2.1,9.2,"00:55:12",1
"23/12/08","01:10",0.0,3.3,90.3,1014.7,268.7,1.0,1.9,318.0,0.00,1.9,8.9,"01:05:40",1
"23/12/08","01:20",0.0,2.9,90.5,1014.2,304.9,1.1,1.8,331.3,0.00,1.5,8.8,"01:10:32",1
"23/12/08","01:30",0.0,2.6,90.7,1014.5,289.0,1.1,1.8,314.1,0.00,1.3,8.7,"01:23:28",1
"23/12/08","01:40",0.0,2.4,91.0,1014.5,281.2,0.7,1.3,300.0,0.00,1.1,8.9,"01:39:56",1
"23/12/08","01:50",0.0,2.2,91.3,1014.5,299.9,1.3,2.1,324.2,0.00,1.0,8.6,"01:43:16",1
"23/12/08","02:00",0.0,2.0,91.7,1014.2,318.1,2.0,2.2,328.0,0.00,0.8,8.8,"01:53:38",1
"23/12/08","02:10",0.0,1.6,92.0,1014.5,286.3,1.1,1.8,309.9,0.00,0.5,8.8,"02:00:02",1
"23/12/08","02:20",0.0,1.5,92.3,1014.5,303.2,1.3,2.1,325.6,0.00,0.4,8.6,"02:19:52",1
"23/12/08","02:30",0.0,1.6,92.7,1014.5,316.5,1.8,2.0,312.6,0.00,0.6,8.5,"02:23:44",1
"23/12/08","02:40",0.0,1.8,93.0,1014.5,309.2,1.1,1.9,317.2,0.00,0.8,8.5,"02:30:48",1
"23/12/08","02:50",0.0,1.7,93.2,1014.2,309.4,1.6,2.2,325.7,0.00,0.8,8.4,"02:45:28",1
"23/12/08","03:00",0.0,1.6,93.6,1014.2,316.1,1.6,2.4,322.7,0.00,0.7,8.5,"02:52:32",1
"23/12/08","03:10",0.0,1.6,93.9,1014.2,324.2,0.5,1.8,320.8,0.00,0.8,8.2,"03:09:12",1
"23/12/08","03:20",0.0,1.7,94.2,1014.0,317.9,1.6,2.2,319.7,0.00,0.9,8.5,"03:14:56",1
"23/12/08","03:30",0.0,1.3,94.3,1014.0,295.0,1.3,2.1,312.2,0.00,0.5,8.2,"03:21:20",1
"23/12/08","03:40",0.0,1.2,94.8,1014.2,313.3,1.6,2.0,325.7,0.00,0.5,8.2,"03:35:28",1
"23/12/08","03:50",0.0,1.2,94.9,1014.0,310.4,1.1,1.7,320.0,0.00,0.5,8.2,"03:48:08",1
"23/12/08","04:00",0.0,1.1,95.2,1014.5,305.5,1.3,2.0,313.1,0.00,0.5,8.3,"03:50:16",1
"23/12/08","04:10",0.0,0.8,95.4,1014.5,299.6,1.0,1.4,286.0,0.00,0.2,8.4,"04:00:56",1
"23/12/08","04:20",0.0,0.7,95.6,1014.5,315.7,1.8,2.6,330.6,0.00,0.1,8.2,"04:14:56",1
"23/12/08","04:30",0.0,0.4,95.8,1014.2,290.8,1.1,1.7,312.2,0.00,-0.2,8.2,"04:20:48",1
"23/12/08","04:40",0.0,0.6,96.2,1014.2,311.9,1.6,2.0,314.5,0.00,0.1,8.3,"04:34:08",1
"23/12/08","04:50",0.0,0.8,96.2,1014.5,322.8,1.7,2.1,316.5,0.00,0.3,8.1,"04:43:36",1
"23/12/08","05:00",0.0,0.6,96.3,1014.2,300.5,1.2,1.8,324.5,0.00,0.1,8.3,"04:54:08",1
"23/12/08","05:10",0.0,0.4,96.4,1014.5,281.0,0.8,1.6,257.7,0.00,-0.1,7.8,"05:04:32",1
"23/12/08","05:20",0.0,0.5,96.7,1014.9,316.3,1.8,2.1,324.9,0.00,0.1,8.1,"05:15:28",1
"23/12/08","05:30",0.0,0.7,96.7,1014.5,316.7,1.6,2.0,315.2,0.00,0.3,8.0,"05:20:08",1
"23/12/08","05:40",0.0,0.4,96.8,1014.7,306.5,1.6,2.1,320.0,0.00,0.0,8.1,"05:32:40",1
"23/12/08","05:50",0.0,0.3,97.0,1014.9,304.8,0.8,1.2,304.0,0.00,-0.1,7.7,"05:40:40",1
"23/12/08","06:00",0.0,0.1,97.1,1014.9,283.0,0.8,1.4,253.9,0.00,-0.3,7.7,"05:53:12",1
"23/12/08","06:10",0.0,0.2,97.4,1015.2,307.7,1.6,2.0,322.3,0.00,-0.1,8.0,"06:06:40",1
"23/12/08","06:20",0.0,0.4,97.3,1015.2,314.7,1.7,2.2,325.2,0.00,0.1,7.8,"06:10:16",1
"23/12/08","06:30",0.0,0.0,97.4,1015.2,288.2,1.1,1.9,318.1,0.00,-0.3,7.8,"06:20:08",1
"23/12/08","06:40",0.0,0.1,97.6,1015.4,289.2,0.7,1.8,330.3,0.00,-0.2,7.9,"06:38:32",1
"23/12/08","06:50",0.0,0.0,97.6,1015.6,319.0,2.0,2.8,323.9,0.00,-0.3,7.6,"06:45:28",1
"23/12/08","07:00",0.0,-0.1,97.8,1015.6,299.5,1.2,1.7,310.6,0.00,-0.4,7.7,"06:50:08",1
"23/12/08","07:10",0.0,0.4,98.1,1015.2,296.6,1.6,2.0,311.0,0.00,0.2,7.6,"07:03:12",1
"23/12/08","07:20",0.0,1.4,97.3,1015.6,307.9,1.7,2.8,318.3,0.00,1.1,7.6,"07:13:12",1
"23/12/08","07:30",0.0,1.3,97.8,1015.9,296.2,1.0,1.6,323.3,0.00,1.0,7.6,"07:20:16",1
"23/12/08","07:40",0.0,1.5,97.9,1016.1,287.0,0.6,1.3,293.4,0.02,1.2,7.6,"07:38:32",1
"23/12/08","07:50",0.0,1.3,98.0,1016.1,314.1,2.0,2.8,322.2,0.04,1.1,7.4,"07:48:10",1
"23/12/08","08:00",0.0,1.9,97.6,1016.4,319.9,2.0,2.5,318.8,0.06,1.6,7.6,"07:52:08",1
"23/12/08","08:10",0.0,2.5,98.2,1016.8,302.6,1.3,2.0,325.6,0.08,2.3,7.3,"08:01:12",1
"23/12/08","08:20",0.0,3.5,97.4,1017.1,282.9,0.8,1.2,290.6,0.10,3.2,7.7,"08:14:24",1
"23/12/08","08:30",0.0,4.2,97.8,1017.3,286.6,0.8,1.2,291.6,0.13,3.9,7.5,"08:21:52",1
"23/12/08","08:40",0.0,5.0,97.8,1017.3,307.4,1.0,1.6,314.7,0.15,4.7,7.4,"08:31:20",1
"23/12/08","08:50",0.0,5.8,97.5,1017.5,294.2,0.8,1.3,302.0,0.18,5.5,7.5,"08:40:24",1
"23/12/08","09:00",0.0,6.5,97.4,1018.0,311.9,1.1,2.0,313.7,0.20,6.2,7.5,"08:59:44",1
"23/12/08","09:10",0.0,7.1,97.2,1017.8,309.5,1.1,1.8,317.4,0.23,6.7,7.6,"09:00:32",1
"23/12/08","09:20",0.0,7.0,96.2,1018.2,270.9,0.7,1.4,307.9,0.25,6.5,7.6,"09:14:16",1
"23/12/08","09:30",0.0,7.8,95.7,1018.7,250.8,0.6,1.4,248.5,0.28,7.2,7.7,"09:24:24",1
"23/12/08","09:40",0.0,8.1,94.8,1018.7,244.5,0.8,1.4,248.8,0.30,7.4,7.7,"09:32:08",1
"23/12/08","09:50",0.0,8.6,92.7,1019.0,226.3,0.3,0.8,282.3,0.32,7.5,7.6,"09:49:20",1
"23/12/08","10:00",0.0,9.2,89.2,1019.2,221.8,0.6,1.6,114.5,0.34,7.6,7.7,"09:55:42",1
"23/12/08","10:10",0.0,9.7,82.6,1019.2,193.5,1.0,2.2,226.9,0.36,6.9,7.9,"10:00:24",1
"23/12/08","10:20",0.0,10.4,74.7,1019.0,186.5,0.7,1.6,186.9,0.38,6.1,7.9,"10:15:58",1
"23/12/08","10:30",0.0,10.9,70.9,1018.7,183.8,0.8,1.9,168.5,0.39,5.9,8.0,"10:21:12",1
"23/12/08","10:40",0.0,11.3,67.8,1018.7,222.2,1.0,2.4,217.7,0.41,5.6,8.0,"10:33:36",1
"23/12/08","10:50",0.0,11.6,65.8,1018.2,199.3,0.7,2.1,238.7,0.42,5.5,8.1,"10:40:48",1
"23/12/08","11:00",0.0,11.8,65.5,1017.8,222.2,1.0,2.6,233.2,0.43,5.6,8.2,"10:56:48",1
"23/12/08","11:10",0.0,12.1,63.3,1017.8,205.4,0.7,2.0,122.0,0.44,5.4,8.4,"11:02:40",1
"23/12/08","11:20",0.0,11.9,61.8,1017.3,222.5,1.2,2.8,218.9,0.45,4.9,8.3,"11:16:48",1
"23/12/08","11:30",0.0,12.4,61.7,1017.1,216.4,1.2,2.2,225.5,0.45,5.3,8.4,"11:23:12",1
"23/12/08","11:40",0.0,12.9,59.3,1017.3,182.9,1.0,2.2,203.0,0.45,5.2,8.6,"11:37:04",1
"23/12/08","11:50",0.0,13.3,57.6,1016.8,191.2,1.0,2.8,103.2,0.46,5.2,8.8,"11:49:52",1
"23/12/08","12:00",0.0,13.2,57.6,1016.4,181.7,1.2,3.9,230.0,0.46,5.1,8.8,"11:57:28",1
"23/12/08","12:10",0.0,13.5,58.6,1016.6,211.0,1.3,3.3,231.9,0.45,5.6,8.9,"12:01:28",1
"23/12/08","12:20",0.0,13.6,56.7,1016.1,144.6,1.3,2.9,227.9,0.45,5.2,9.0,"12:19:52",1
"23/12/08","12:30",0.0,13.9,55.6,1015.9,235.0,1.0,2.0,228.5,0.44,5.2,9.1,"12:20:08",1
"23/12/08","12:40",0.0,14.3,56.8,1015.6,216.9,0.8,2.0,233.8,0.44,5.9,9.0,"12:37:20",1
"23/12/08","12:50",0.0,14.4,54.3,1015.6,249.0,0.8,1.9,344.3,0.43,5.3,9.3,"12:41:20",1
"23/12/08","13:00",0.0,14.6,53.8,1015.4,213.3,1.1,3.2,230.4,0.42,5.4,9.4,"12:56:08",1
"23/12/08","13:10",0.0,14.7,51.1,1015.2,238.2,1.0,2.7,231.6,0.41,4.7,9.5,"13:00:16",1
"23/12/08","13:20",0.0,15.0,48.8,1014.9,237.8,1.0,2.5,213.7,0.40,4.4,9.6,"13:15:44",1
"23/12/08","13:30",0.0,15.4,47.5,1014.9,294.5,0.8,1.8,254.2,0.38,4.3,9.6,"13:20:08",1
"23/12/08","13:40",0.0,15.7,45.6,1014.5,262.9,0.8,2.2,4.1,0.37,4.0,10.0,"13:30:48",1
"23/12/08","13:50",0.0,15.4,45.0,1014.5,255.7,1.5,2.8,232.6,0.35,3.6,9.9,"13:43:44",1
"23/12/08","14:00",0.0,15.6,46.6,1014.7,146.8,1.2,2.7,126.5,0.34,4.3,10.0,"13:53:28",1
"23/12/08","14:10",0.0,15.9,45.4,1014.5,225.1,1.0,2.2,241.6,0.32,4.2,10.3,"14:08:16",1
"23/12/08","14:20",0.0,15.8,44.1,1014.5,212.1,0.8,2.6,231.4,0.29,3.7,10.0,"14:18:56",1
"23/12/08","14:30",0.0,15.9,44.4,1014.7,233.8,1.1,2.5,236.9,0.27,3.8,10.4,"14:21:12",1
"23/12/08","14:40",0.0,15.9,44.7,1014.5,25.9,0.8,1.9,54.4,0.25,3.9,10.4,"14:34:00",1
"23/12/08","14:50",0.0,16.1,44.0,1014.5,348.9,0.7,1.6,325.7,0.22,3.9,10.4,"14:43:52",1
"23/12/08","15:00",0.0,16.0,44.4,1014.5,214.9,0.7,1.9,248.9,0.19,3.9,10.6,"14:55:44",1
"23/12/08","15:10",0.0,15.8,44.7,1014.5,165.0,0.7,2.1,142.3,0.17,3.8,10.5,"15:01:52",1
"23/12/08","15:20",0.0,16.1,43.9,1014.5,289.2,1.0,2.1,331.8,0.15,3.9,10.6,"15:14:16",1
"23/12/08","15:30",0.0,15.8,44.6,1014.7,246.2,1.0,1.8,248.3,0.12,3.8,10.4,"15:21:44",1
"23/12/08","15:40",0.0,15.9,43.6,1014.5,276.9,1.0,2.0,248.3,0.10,3.6,10.4,"15:33:28",1
"23/12/08","15:50",0.0,15.7,48.0,1014.7,277.7,1.0,2.0,318.1,0.08,4.8,10.6,"15:44:32",1
"23/12/08","16:00",0.0,15.5,48.5,1014.9,284.5,1.0,1.8,329.9,0.05,4.7,10.6,"15:59:36",1
"23/12/08","16:10",0.0,14.0,52.3,1014.9,285.9,1.1,2.1,324.4,0.01,4.4,10.6,"16:00:48",1
"23/12/08","16:20",0.0,12.6,58.4,1014.7,277.9,1.2,2.1,252.3,0.00,4.7,10.8,"16:11:50",1
"23/12/08","16:30",0.0,11.8,61.4,1014.9,300.8,1.5,2.1,320.0,0.00,4.7,10.8,"16:27:34",1
"23/12/08","16:40",0.0,11.1,64.3,1014.5,294.6,1.6,2.4,322.6,0.00,4.7,10.8,"16:33:30",1
"23/12/08","16:50",0.0,10.6,66.2,1014.9,300.7,1.6,2.2,321.5,0.00,4.6,10.7,"16:47:36",1
"23/12/08","17:00",0.0,10.2,67.7,1014.7,301.8,1.5,2.4,315.2,0.00,4.5,10.3,"16:58:56",1
"23/12/08","17:10",0.0,9.8,68.7,1014.9,284.0,1.3,1.8,317.9,0.00,4.4,10.5,"17:00:32",1
"23/12/08","17:20",0.0,9.6,69.8,1014.9,287.3,1.7,2.5,264.0,0.00,4.4,10.4,"17:11:20",1
"23/12/08","17:30",0.0,9.2,70.6,1014.9,295.8,1.6,3.1,315.5,0.00,4.2,10.4,"17:29:28",1
"23/12/08","17:40",0.0,9.0,71.5,1015.4,299.3,1.8,2.8,322.4,0.00,4.2,10.4,"17:39:20",1
"23/12/08","17:50",0.0,8.7,72.3,1015.4,294.8,1.7,2.6,301.8,0.00,4.0,10.4,"17:46:24",1
"23/12/08","18:00",0.0,8.5,73.1,1015.4,293.3,2.1,3.9,325.5,0.00,4.0,10.3,"17:58:40",1
"23/12/08","18:10",0.0,8.2,73.7,1015.4,302.7,2.3,3.3,324.0,0.00,3.8,10.2,"18:01:20",1
"23/12/08","18:20",0.0,7.9,74.4,1015.2,292.0,1.8,2.7,300.2,0.00,3.7,10.2,"18:19:44",1
"23/12/08","18:30",0.0,7.5,75.1,1015.6,307.6,1.6,2.8,320.1,0.00,3.4,10.1,"18:28:08",1
"23/12/08","18:40",0.0,6.8,76.1,1015.4,284.0,1.5,2.4,258.1,0.00,2.9,10.2,"18:39:20",1
"23/12/08","18:50",0.0,6.8,77.4,1015.2,297.4,2.2,2.8,311.6,0.00,3.2,9.8,"18:43:44",1
"23/12/08","19:00",0.0,6.6,78.3,1015.6,326.2,1.2,2.8,318.1,0.00,3.1,10.1,"18:59:20",1
"23/12/08","19:10",0.0,6.2,79.2,1015.6,311.1,1.6,2.1,262.8,0.00,2.9,10.0,"19:08:30",1
"23/12/08","19:20",0.0,5.8,80.5,1015.4,297.1,2.0,2.5,310.2,0.00,2.7,9.8,"19:17:38",1
"23/12/08","19:30",0.0,5.9,81.8,1015.4,308.1,2.0,2.8,324.0,0.00,3.1,9.8,"19:26:56",1
"23/12/08","19:40",0.0,6.0,82.4,1015.4,301.3,1.8,2.7,306.6,0.00,3.3,9.7,"19:35:20",1
"23/12/08","19:50",0.0,5.5,82.8,1015.2,325.3,1.0,2.2,319.2,0.00,2.9,9.8,"19:42:48",1
"23/12/08","20:00",0.0,5.1,83.9,1015.2,328.9,1.7,2.1,344.5,0.00,2.6,9.7,"19:59:10",1
"23/12/08","20:10",0.0,5.0,84.7,1014.9,312.2,1.8,2.2,311.0,0.00,2.7,9.5,"20:07:38",1
"23/12/08","20:20",0.0,5.1,85.6,1015.4,303.0,1.8,3.4,328.0,0.00,2.9,9.4,"20:10:02",1
"23/12/08","20:30",0.0,5.5,86.1,1015.4,307.0,2.3,2.9,336.4,0.00,3.4,9.3,"20:20:08",1
"23/12/08","20:40",0.0,5.3,86.5,1014.9,321.5,1.7,2.5,316.9,0.00,3.3,9.3,"20:30:20",1
"23/12/08","20:50",0.0,4.8,86.8,1014.9,315.0,0.8,2.1,309.7,0.00,2.8,9.2,"20:44:20",1
"23/12/08","21:00",0.0,4.4,87.2,1015.2,276.9,1.2,1.9,304.6,0.00,2.5,9.5,"20:51:36",1
"23/12/08","21:10",0.0,4.6,87.9,1015.2,298.9,1.5,1.7,315.0,0.00,2.8,9.4,"21:06:52",1
"23/12/08","21:20",0.0,4.0,88.1,1015.4,312.8,1.8,2.4,321.3,0.00,2.3,9.2,"21:15:00",1
"23/12/08","21:30",0.0,3.5,88.8,1015.4,313.4,1.3,1.9,323.6,0.00,1.9,9.3,"21:23:04",1
"23/12/08","21:40",0.0,3.2,89.2,1015.2,300.9,1.2,1.6,315.5,0.00,1.6,9.1,"21:38:42",1
"23/12/08","21:50",0.0,3.3,89.8,1014.9,315.6,1.3,1.8,322.0,0.00,1.8,9.2,"21:46:28",1
"23/12/08","22:00",0.0,3.4,90.0,1014.9,297.1,1.1,1.6,311.1,0.00,2.0,9.3,"21:51:14",1
"23/12/08","22:10",0.0,4.3,90.5,1015.4,297.2,1.6,2.1,298.3,0.00,2.9,8.8,"22:04:28",1
"23/12/08","22:20",0.0,4.5,90.7,1015.4,305.7,1.6,2.2,320.7,0.00,3.2,9.0,"22:13:18",1
"23/12/08","22:30",0.0,4.1,91.1,1015.4,298.8,0.8,1.9,322.6,0.00,2.8,8.8,"22:26:58",1
"23/12/08","22:40",0.0,3.8,91.6,1015.4,268.2,0.3,1.2,311.6,0.00,2.6,8.8,"22:39:58",1
"23/12/08","22:50",0.0,3.6,92.2,1015.4,324.9,1.6,2.2,342.4,0.00,2.5,8.9,"22:45:16",1
"23/12/08","23:00",0.0,3.5,92.4,1015.4,304.8,1.2,1.7,322.2,0.00,2.4,8.9,"22:51:52",1
"23/12/08","23:10",0.0,3.4,92.9,1015.4,253.0,0.3,0.9,308.8,0.00,2.4,8.6,"23:08:34",1
"23/12/08","23:20",0.0,3.5,93.3,1015.2,299.1,1.1,2.4,324.8,0.00,2.6,8.7,"23:18:48",1
"23/12/08","23:30",0.0,4.0,93.5,1015.9,310.4,1.7,2.0,313.6,0.00,3.1,8.8,"23:25:12",1
"23/12/08","23:40",0.0,4.3,93.6,1015.9,297.7,1.2,1.6,314.2,0.00,3.4,8.7,"23:37:40",1
"23/12/08","23:50",0.0,4.5,93.7,1015.9,312.8,2.2,2.8,321.3,0.00,3.6,8.8,"23:46:44",1
"23/12/08","24:00",0.0,4.7,94.2,1016.1,254.5,0.6,1.8,281.5,0.00,3.9,8.7,"23:58:44",1
